sat.trackr.live / text

‹ back to catalog

STARLINK-11296 [DTC]

NORAD 61699 · 2024-195N

PAYLOAD ACTIVE UNKNOWN

§ Identity

Operator
Country
US
Launch date
2024-10-30
Launch site
AFWTR
Launch vehicle
Mass (kg)
RCS (m²)

Purposes: comms

External: N2YO · Heavens-Above · Gunter

§ Orbital elements

Epoch: 2026-09-21T21:22:03.071712Z

Period
91.74 min
Inclination
53.1594°
Eccentricity
0.0001128
Mean motion
15.69708049 rev/d
Perigee alt
359.0 km
Apogee alt
360.5 km
Semi-major
6,737.9 km
B*
-1.5187e-6
RAAN
138.7308°
Arg perigee
77.2578°
Mean anomaly
282.8566°
Rev number
10,985

§ Raw data

STARLINK-11296 [DTC]1 61699U 24195N   26264.89031333 -.00000773  00000+0 -15187-5 0  99972 61699  53.1594 138.7308 0001128  77.2578 282.8566 15.69708049109857

JSON: /api/v1/satellites/61699 · /tle

For live sub-satellite position, see the globe view (requires WebGL).

§ Visibility from observer

Set your observer location to see the next 7 days of passes ≥ 10°. The values pass through the URL so the page stays shareable.

No JS? Fill the form by hand. The geolocation button needs JavaScript.